Temperature
20 19 20 20 20 20 20 20 19 19 19 19 19 19 19 19 19 18 18 18 18 18 18 18 18 18 18 18 18 18 18 18 18 18 17 17 17 17 17 17 17 16 17
20 19 20 20 20 20 20 20 19 19 19 19 19 19 19 19 18 18 18 18 18 18 18 18 18 18 18 18 18 18 18 17 17 17 17 17 17 17 17 17 16 17 17
20 19 20 20 20 20 20 19 19 19 19 19 19 19 19 18 18 18 18 18 18 18 18 18 18 18 18 18 18 18 17 17 17 17 17 17 17 17 17 17 17 17 17
20 19 19 20 20 20 20 20 19 19 19 19 19 19 19 18 18 18 18 18 18 18 18 18 18 18 18 18 18 17 17 17 17 17 17 17 16 17 17 17 17 17 17
20 19 19 20 19 19 19 19 19 19 19 19 19 19 19 18 18 18 18 18 18 18 18 18 18 18 18 18 18 17 17 17 17 17 17 17 17 17 17 17 17 17 17
19 19 19 20 19 19 19 19 19 19 19 19 19 19 18 18 18 18 18 18 18 18 18 18 18 18 18 18 17 17 17 17 17 17 17 17 17 17 17 17 17 17 17
20 19 19 19 19 19 19 19 19 19 19 19 18 18 18 18 18 18 18 18 18 18 18 18 18 18 18 18 17 17 17 17 17 17 16 16 17 17 17 17 17 17 17
20 19 18 19 19 19 19 19 19 19 19 19 18 18 18 18 18 18 18 18 18 18 18 18 18 18 18 18 17 17 17 17 17 17 17 17 17 17 17 17 17 17 16
20 19 18 18 19 19 19 19 19 19 19 19 18 18 18 18 18 18 18 18 18 18 18 18 17 17 17 17 17 17 17 17 17 17 17 17 17 17 17 17 17 17 16
19 19 18 18 18 18 18 19 19 19 19 18 18 18 18 18 18 18 17 18 18 18 18 18 18 17 17 17 17 17 17 17 18 17 17 17 17 17 17 17 17 17 16
19 19 19 18 18 18 18 18 18 18 18 18 18 18 18 17 17 17 17 18 18 18 18 18 18 18 17 17 18 18 18 17 17 18 17 17 17 17 17 17 17 17 17
19 19 18 19 18 18 18 18 18 18 18 17 17 17 17 17 17 17 17 18 17 17 18 18 18 18 17 17 17 18 17 17 17 17 17 17 17 17 17 17 17 17 17
19 18 18 18 18 18 18 18 18 18 18 17 17 17 17 17 17 17 17 17 17 17 17 17 17 17 17 17 17 17 17 18 17 17 17 17 17 17 17 17 17 17 17
18 18 18 18 18 18 18 18 18 18 18 18 17 18 17 17 17 17 17 17 17 17 17 17 17 17 17 17 17 17 17 17 17 17 17 17 17 17 17 17 17 16 16
18 18 18 18 18 18 18 18 18 18 18 18 17 18 17 17 17 17 17 17 17 17 17 17 16 16 16 16 17 17 17 17 17 17 17 17 17 17 17 17 16 16 16
18 18 18 18 18 18 18 18 18 18 18 18 17 17 17 17 17 17 17 17 17 17 17 17 17 16 17 17 17 16 17 17 16 17 17 17 17 17 17 17 17 16 16
18 17 18 18 18 18 18 18 18 18 18 17 17 17 17 17 17 17 17 17 17 17 17 17 16 16 17 17 16 17 17 17 17 16 16 16 16 17 17 17 16 16 16
17 17 18 18 18 18 18 18 17 17 17 17 17 17 17 17 17 17 17 17 16 16 16 16 17 17 17 17 17 17 17 17 16 16 16 16 16 16 16 16 16 16 16
17 17 17 17 18 17 18 18 17 17 17 17 17 17 17 17 17 17 17 16 16 16 16 17 17 17 17 17 17 17 17 17 16 17 16 16 16 16 16 16 16 16 16
17 17 17 17 17 17 17 17 17 17 17 17 17 17 17 16 16 16 16 16 16 16 16 16 16 16 16 16 17 17 17 17 17 17 16 16 16 16 16 16 16 16 16
17 17 17 17 17 17 17 17 17 17 17 17 16 17 16 16 16 16 16 16 16 16 16 16 16 16 16 16 17 17 17 17 17 17 17 17 17 16 16 16 16 16 16
17 17 17 17 17 17 17 17 17 17 17 16 16 17 16 16 16 16 16 16 16 16 15 15 15 17 17 16 17 18 18 18 17 17 17 17 17 16 16 16 16 16 16
17 17 17 17 17 17 17 17 17 17 17 16 16 16 16 16 16 16 16 16 15 16 16 15 15 16 17 16 17 18 18 19 18 17 17 17 17 17 17 16 16 16 16
17 17 17 17 17 17 17 17 17 17 17 17 16 16 16 16 16 16 15 15 15 16 15 16 15 16 16 17 16 16 17 17 18 19 18 17 17 16 17 17 17 16 16
16 16 16 17 17 17 17 17 17 17 17 17 16 16 16 16 16 16 15 15 15 15 15 15 15 15 16 16 17 17 17 17 17 18 19 18 17 17 17 16 16 16 16
16 16 16 16 16 17 17 16 17 16 16 17 16 16 16 16 16 16 15 15 15 15 15 15 15 15 15 16 16 16 17 17 18 18 18 18 18 18 17 17 16 16 16
Wind_Speed
15 18 20 17 16 16 16 16 17 17 17 17 16 15 14 13 12 11 10 9 8 8 8 8 8 8 8 8 8 9 10 11 12 13 14 15 15 16 16 16 15 17 17
19 21 21 18 17 17 17 17 17 17 17 16 15 14 13 12 11 10 10 9 9 8 8 8 8 8 8 8 9 9 10 11 13 13 14 14 15 15 14 12 12 16 16
21 22 22 19 18 18 17 17 17 17 16 16 15 14 13 12 11 10 10 9 9 9 8 8 8 8 8 8 9 10 10 12 12 13 12 12 14 13 13 14 16 16 15
22 22 21 21 19 18 18 17 17 16 16 15 14 13 12 11 11 10 9 9 9 9 8 8 8 8 8 9 9 10 11 12 11 11 9 11 13 14 13 14 15 15 14
20 21 22 22 20 19 18 17 17 16 16 15 14 13 12 11 10 10 10 9 9 9 9 9 9 8 8 8 9 9 10 11 10 8 9 10 12 13 13 14 14 14 13
20 21 23 21 20 19 18 17 17 16 15 15 13 12 12 11 10 10 9 8 9 9 9 9 8 8 8 8 8 9 10 10 10 8 9 9 12 13 13 13 14 14 13
20 20 23 21 20 19 18 17 16 16 15 14 13 12 11 10 10 9 8 8 8 9 9 8 8 7 7 7 7 9 9 7 5 8 8 9 12 13 12 12 13 13 13
19 19 22 20 20 19 18 17 16 15 14 13 12 11 10 10 9 8 7 7 8 8 8 7 7 6 6 6 6 7 8 8 7 7 7 10 13 12 12 12 12 12 12
18 18 19 20 19 18 17 16 16 15 14 13 12 11 10 9 8 7 7 7 7 7 6 6 6 6 6 5 5 6 7 5 5 7 7 9 13 11 12 12 12 11 12
16 16 17 18 18 18 17 16 15 14 13 12 11 10 9 9 8 7 7 7 6 5 5 5 5 5 5 5 5 7 7 7 5 7 6 11 12 11 11 12 11 11 11
15 15 15 16 16 16 16 17 15 14 13 13 11 10 9 8 8 8 6 6 5 4 4 4 4 4 3 6 6 7 8 5 5 4 6 13 11 10 10 11 11 11 11
18 16 14 14 14 14 13 15 13 13 12 10 9 9 7 5 4 4 9 5 4 4 5 5 4 5 7 6 8 8 5 3 5 5 8 12 10 10 10 10 11 11 11
19 16 15 14 14 13 10 11 10 9 10 9 8 7 5 5 5 4 5 7 6 6 6 7 7 5 3 1 1 3 2 3 2 4 9 11 10 10 10 10 10 10 10
18 17 15 14 13 12 10 9 9 8 8 7 8 7 6 4 3 3 3 4 5 4 3 4 3 3 2 2 2 1 3 3 3 3 9 11 10 10 10 10 10 10 10
17 16 15 14 13 11 9 8 8 8 8 8 7 6 5 4 3 3 3 2 3 3 4 4 3 3 3 4 4 3 3 2 3 4 7 11 10 10 10 10 10 10 10
16 15 14 14 14 12 10 8 7 8 7 7 6 6 5 4 3 3 4 3 3 3 2 2 3 3 4 3 4 3 3 4 4 4 6 10 11 11 11 11 11 11 11
16 15 15 15 14 13 11 10 8 7 8 6 6 6 5 4 3 3 3 3 3 3 3 3 3 4 4 4 4 4 3 3 4 5 5 7 10 11 11 11 11 11 12
14 15 15 13 14 13 10 9 8 7 7 6 6 6 5 4 4 4 3 3 3 3 3 3 3 3 3 3 3 3 3 4 4 5 5 6 6 8 11 11 11 12 12
15 15 15 13 13 13 11 9 8 7 6 5 5 5 5 5 5 4 2 2 4 3 3 3 3 3 3 3 4 4 3 4 4 5 4 6 6 6 7 11 11 11 12
14 14 14 13 13 12 10 8 7 7 6 6 5 5 5 5 5 4 4 3 4 3 3 1 2 1 1 2 3 4 4 4 4 4 5 6 7 7 7 7 10 11 12
12 14 14 13 13 11 9 10 9 8 7 6 6 6 6 5 6 4 3 4 3 2 2 3 3 4 3 2 3 4 4 4 4 4 4 4 6 6 6 6 8 7 10
13 13 14 14 14 12 10 8 7 8 6 6 5 6 6 6 6 5 3 4 3 2 3 2 3 3 2 3 3 3 4 5 5 4 4 4 4 6 7 7 6 6 7
13 14 13 14 13 13 12 9 8 7 6 6 6 6 6 6 5 4 4 3 3 4 3 3 3 4 3 3 3 3 3 2 4 5 4 4 4 4 5 5 7 7 8
12 13 13 14 13 12 12 12 12 10 8 7 7 6 6 6 6 5 4 4 3 3 2 4 3 3 3 4 3 3 3 4 2 2 5 6 5 5 4 4 5 6 7
11 12 12 13 13 13 13 13 12 10 8 7 7 8 7 6 6 6 5 4 3 3 2 1 2 3 4 4 3 3 3 3 5 5 2 3 5 5 5 5 5 5 5
11 11 12 13 13 13 13 13 13 11 10 9 9 9 8 7 6 7 6 5 4 3 3 3 3 3 2 2 4 4 4 4 5 5 4 5 4 4 4 4 5 5 5
Wind_Direction
159 150 147 151 146 142 138 136 135 136 137 138 137 135 134 134 133 132 128 121 114 106 99 93 91 90 94 101 108 113 116 118 118 118 117 117 115 114 116 121 123 114 115
153 148 149 152 149 145 141 138 135 135 135 136 136 136 135 135 136 135 129 121 114 106 100 94 91 90 94 101 107 114 120 123 125 124 124 123 118 117 118 116 108 113 119
150 148 153 153 150 146 143 140 137 136 135 135 135 135 135 135 132 128 125 118 113 108 103 98 93 92 96 103 110 115 120 124 127 131 138 129 123 120 116 111 112 120 121
151 150 155 151 151 147 144 141 139 138 137 137 136 135 133 130 128 125 121 118 113 109 104 99 96 95 98 104 111 115 121 126 131 151 146 128 127 123 122 121 122 125 124
151 151 148 153 152 150 146 143 141 140 138 137 137 136 133 130 129 124 118 114 109 107 103 97 96 97 100 107 114 118 122 129 148 170 120 118 117 126 128 128 129 126 126
152 153 149 156 154 152 149 146 144 142 140 139 138 137 134 132 129 123 118 114 107 104 99 95 97 99 100 105 115 125 129 144 179 129 123 127 123 129 131 132 134 130 129
156 154 151 158 155 154 152 149 146 144 142 141 140 138 136 132 127 124 120 115 108 103 99 96 96 100 102 109 121 131 138 170 159 123 132 127 122 132 135 135 134 133 132
157 154 150 157 156 156 155 152 149 147 145 144 141 140 137 130 126 126 126 118 110 103 100 98 94 92 97 105 122 137 153 199 140 131 133 124 125 138 137 136 135 135 136
160 155 154 160 160 159 157 155 152 151 149 146 143 141 137 134 134 132 126 122 117 112 109 105 98 88 84 96 118 133 151 225 158 135 136 122 134 144 141 141 140 139 140
163 158 158 164 162 163 160 157 155 153 151 147 144 144 142 144 148 145 154 131 127 126 125 118 109 95 86 96 120 135 157 202 159 148 139 127 142 151 149 147 147 145 144
167 164 165 162 164 166 162 156 158 156 155 156 155 152 168 170 160 168 128 124 139 142 139 134 124 115 132 132 131 152 183 195 142 147 123 125 150 158 155 153 154 152 150
171 171 168 164 165 167 162 157 163 165 161 172 160 166 175 159 163 154 123 145 155 160 165 154 146 176 220 164 148 181 193 168 153 154 127 136 157 164 161 160 159 160 159
172 172 170 168 170 165 161 161 162 160 161 167 161 168 165 174 177 179 172 169 179 189 192 163 190 203 195 142 187 171 139 174 170 157 133 150 167 170 169 170 169 170 168
171 173 172 167 168 168 165 162 163 164 165 165 162 178 172 184 192 184 200 184 191 190 184 201 191 184 183 188 206 156 170 208 174 146 133 157 170 172 174 179 181 181 178
172 173 172 168 167 165 164 171 166 166 165 162 163 173 184 187 192 183 193 208 223 193 191 203 204 185 194 197 208 179 184 183 181 183 146 163 174 177 180 186 191 191 188
174 175 172 172 169 168 169 171 164 165 163 163 168 167 185 192 184 190 193 195 212 216 219 218 193 197 212 198 200 184 190 177 174 194 166 164 177 186 191 193 195 197 195
176 176 176 176 173 173 171 170 165 166 165 166 158 163 179 193 184 197 189 194 191 194 190 215 206 211 212 200 193 191 184 187 172 190 188 176 176 185 194 197 199 201 201
179 178 180 179 175 173 170 169 164 166 159 164 162 162 173 179 188 204 196 181 165 193 196 192 223 212 209 207 188 194 174 174 186 191 194 192 189 190 185 192 203 205 205
184 182 181 181 176 174 168 166 161 157 158 159 164 165 164 179 183 203 195 145 189 197 201 214 181 225 200 200 188 176 182 178 179 186 189 192 190 204 187 178 198 207 209
187 185 180 178 173 168 163 162 160 158 160 161 164 158 164 174 179 190 177 169 206 195 190 194 161 202 224 208 207 160 180 174 185 174 202 188 190 197 203 193 197 200 205
183 181 178 177 172 169 168 170 168 165 166 163 166 162 170 177 172 194 185 168 219 195 207 195 201 176 193 188 200 184 180 187 183 186 204 203 186 193 197 199 218 207 196
183 182 180 179 176 175 171 169 168 161 165 160 159 154 171 176 179 181 196 196 193 179 192 204 225 232 172 197 236 214 195 184 198 191 191 201 196 193 197 199 205 210 231
186 186 183 179 176 177 167 160 156 155 161 162 165 167 178 181 183 181 187 208 191 213 179 203 211 225 214 197 243 267 257 222 176 180 201 199 203 212 208 194 208 204 219
189 184 180 176 174 173 169 174 174 178 176 174 174 165 171 182 184 181 185 190 210 214 170 207 193 225 241 221 196 255 304 342 283 191 191 192 199 215 223 224 213 201 213
179 176 173 172 171 172 178 179 180 183 177 168 169 164 178 178 188 190 189 188 198 209 186 216 181 241 238 255 235 219 226 237 259 277 242 200 202 209 207 218 225 218 212
170 170 169 168 168 173 179 182 185 182 176 169 175 174 185 180 187 189 191 191 199 195 183 200 206 203 249 276 274 251 241 245 246 253 258 241 227 202 203 226 235 228 228
Height
1523 1525 1526 1529 1532 1535 1537 1539 1541 1543 1544 1546 1547 1549 1550 1551 1552 1552 1553 1554 1555 1556 1556 1557 1557 1558 1558 1558 1559 1559 1560 1560 1561 1562 1562 1563 1564 1565 1566 1567 1568 1569 1569
1521 1524 1526 1530 1533 1536 1538 1540 1542 1544 1546 1547 1549 1550 1551 1552 1553 1554 1555 1556 1556 1557 1558 1558 1558 1559 1559 1560 1560 1560 1561 1562 1563 1563 1564 1565 1566 1567 1568 1569 1570 1571 1572
1521 1524 1527 1530 1534 1537 1539 1541 1543 1545 1547 1548 1550 1551 1553 1554 1555 1556 1556 1557 1558 1558 1559 1559 1560 1560 1560 1561 1561 1562 1562 1563 1564 1565 1566 1568 1568 1569 1570 1571 1572 1573 1574
1522 1525 1528 1531 1535 1537 1540 1542 1544 1546 1548 1550 1551 1553 1554 1555 1556 1557 1558 1559 1559 1560 1560 1561 1561 1562 1562 1562 1563 1563 1564 1565 1566 1567 1570 1571 1571 1571 1572 1573 1574 1575 1576
1524 1527 1529 1532 1535 1538 1541 1543 1545 1547 1549 1551 1553 1554 1555 1556 1557 1558 1559 1560 1561 1561 1562 1562 1563 1563 1564 1564 1565 1565 1566 1567 1568 1570 1572 1572 1572 1573 1574 1575 1576 1577 1578
1524 1528 1529 1533 1536 1539 1542 1544 1546 1548 1550 1552 1554 1555 1556 1558 1559 1560 1560 1561 1562 1563 1563 1564 1564 1565 1566 1566 1567 1567 1568 1569 1571 1574 1574 1574 1574 1575 1576 1577 1578 1579 1580
1525 1529 1531 1534 1537 1540 1543 1545 1547 1549 1551 1553 1555 1556 1558 1559 1560 1561 1562 1563 1563 1564 1565 1565 1566 1567 1568 1568 1569 1570 1570 1571 1575 1575 1576 1576 1576 1576 1578 1579 1580 1581 1582
1526 1530 1531 1534 1538 1541 1544 1546 1548 1550 1552 1554 1556 1557 1559 1560 1561 1562 1563 1564 1564 1565 1566 1567 1568 1569 1569 1570 1571 1571 1572 1573 1576 1577 1578 1578 1577 1578 1580 1581 1582 1583 1584
1527 1530 1532 1535 1538 1541 1544 1547 1549 1551 1553 1555 1557 1558 1559 1560 1562 1563 1564 1565 1565 1566 1567 1568 1569 1570 1571 1571 1572 1573 1574 1574 1578 1578 1579 1579 1579 1580 1581 1582 1583 1584 1585
1527 1530 1532 1536 1539 1542 1544 1547 1549 1552 1554 1555 1557 1559 1560 1561 1562 1564 1565 1565 1566 1567 1568 1569 1570 1571 1572 1573 1573 1574 1575 1576 1579 1579 1581 1580 1580 1581 1582 1583 1584 1586 1586
1526 1530 1533 1536 1539 1543 1546 1547 1549 1552 1554 1556 1558 1559 1561 1563 1565 1565 1566 1566 1567 1567 1568 1569 1570 1571 1573 1574 1574 1575 1576 1579 1580 1581 1581 1580 1580 1581 1583 1584 1585 1587 1588
1524 1528 1532 1535 1539 1543 1546 1547 1550 1553 1554 1557 1559 1560 1562 1563 1565 1566 1565 1566 1567 1568 1569 1569 1571 1572 1574 1576 1576 1576 1578 1579 1580 1581 1581 1580 1581 1582 1583 1585 1586 1587 1588
1522 1526 1530 1534 1538 1542 1545 1547 1550 1553 1554 1557 1558 1560 1561 1563 1564 1566 1567 1567 1568 1568 1570 1570 1571 1574 1575 1576 1577 1578 1578 1580 1580 1581 1581 1580 1581 1582 1584 1585 1587 1588 1589
1521 1525 1529 1533 1536 1540 1544 1547 1549 1552 1554 1557 1557 1559 1561 1563 1564 1565 1566 1568 1568 1569 1570 1571 1571 1573 1573 1574 1576 1577 1578 1579 1580 1581 1580 1581 1581 1582 1584 1585 1587 1588 1589
1519 1523 1528 1531 1535 1538 1542 1545 1549 1552 1554 1556 1557 1559 1560 1562 1563 1564 1565 1566 1568 1569 1569 1569 1570 1571 1572 1573 1575 1576 1577 1578 1579 1580 1580 1580 1581 1583 1584 1585 1586 1588 1589
1517 1521 1526 1529 1533 1537 1540 1544 1548 1551 1553 1556 1557 1558 1559 1562 1562 1563 1564 1565 1567 1568 1569 1569 1570 1570 1571 1573 1574 1575 1576 1577 1577 1579 1580 1580 1581 1582 1584 1585 1586 1587 1588
1516 1520 1524 1528 1532 1536 1540 1543 1547 1550 1552 1555 1556 1557 1558 1561 1561 1563 1564 1565 1566 1567 1567 1568 1568 1569 1570 1572 1572 1573 1574 1575 1576 1578 1579 1580 1581 1582 1583 1584 1585 1586 1587
1515 1518 1522 1527 1530 1534 1538 1542 1546 1549 1551 1553 1555 1557 1558 1559 1561 1562 1564 1565 1565 1566 1567 1567 1569 1569 1570 1571 1572 1573 1573 1574 1575 1576 1578 1579 1580 1582 1582 1583 1584 1585 1586
1512 1516 1520 1525 1529 1533 1537 1541 1544 1547 1550 1552 1554 1556 1557 1559 1560 1562 1563 1564 1564 1566 1566 1567 1568 1568 1569 1570 1571 1571 1573 1573 1574 1576 1577 1578 1579 1580 1581 1581 1582 1584 1585
1510 1514 1518 1523 1527 1531 1535 1539 1543 1546 1548 1551 1553 1555 1556 1558 1559 1561 1562 1562 1564 1565 1565 1566 1566 1567 1568 1569 1571 1571 1572 1573 1574 1575 1576 1577 1578 1579 1580 1581 1581 1582 1583
1507 1511 1516 1520 1525 1529 1533 1537 1541 1544 1547 1550 1552 1553 1555 1557 1558 1559 1562 1561 1563 1564 1564 1565 1566 1567 1568 1569 1570 1571 1572 1573 1573 1574 1575 1576 1577 1578 1578 1579 1580 1581 1582
1505 1508 1512 1517 1522 1527 1531 1536 1539 1543 1546 1548 1551 1552 1554 1556 1557 1559 1560 1561 1562 1562 1563 1564 1565 1567 1568 1568 1570 1570 1571 1573 1573 1574 1574 1575 1576 1577 1578 1578 1579 1579 1581
1502 1505 1509 1514 1520 1524 1529 1533 1537 1541 1544 1547 1549 1551 1553 1554 1556 1557 1558 1560 1560 1562 1563 1563 1564 1565 1567 1568 1569 1570 1570 1570 1571 1573 1573 1574 1575 1576 1577 1577 1577 1578 1578
1499 1502 1506 1511 1516 1521 1526 1531 1535 1539 1542 1545 1548 1550 1551 1553 1555 1556 1557 1558 1559 1561 1561 1563 1563 1565 1566 1568 1568 1569 1570 1570 1571 1571 1572 1573 1573 1574 1575 1576 1576 1576 1577
1497 1500 1504 1509 1514 1519 1524 1528 1533 1537 1541 1544 1546 1548 1550 1552 1554 1555 1556 1557 1558 1560 1560 1561 1561 1563 1565 1566 1567 1568 1569 1570 1571 1571 1570 1572 1572 1573 1573 1574 1575 1575 1575
1496 1499 1503 1507 1512 1517 1522 1527 1531 1535 1539 1542 1545 1547 1549 1551 1553 1554 1555 1556 1557 1559 1559 1560 1560 1561 1563 1564 1565 1567 1568 1569 1569 1570 1570 1570 1570 1571 1571 1572 1573 1573 1573